Regional Weather Roundup
Issued by NWS

Home | Current Version | Previous Version | Graphics & Text | Print | Product List | Glossary On
Versions: 1 2 3 4 5 6 7 8 9 10 11 12 13 14 15 16 17 18 19 20 21 22 23 24 25 26 27 28 29 30 31 32 33 34 35 36 37 38 39 40 41 42 43 44 45 46 47 48 49 50
000
ASUS45 KABQ 291501
RWRNM
NEW MEXICO REGIONAL WEATHER ROUNDUP
NATIONAL WEATHER SERVICE ALBUQUERQUE NM
900 AM MDT SAT AUG 29 2015

NOTE: "FAIR" MEANS FEW OR NO CLOUDS BELOW 12,000 FEET AGL WITH NO
       SIGNIFICANT WEATHER OR OBSTRUCTIONS TO VISION.

      THIS PRODUCT IS RELEASED AS TWO VERSIONS.  ONE VERSION NEAR
      THE TOP OF THE HOUR CONTAINING PRELIMINARY DATA FROM ALBUQUERQUE
      AND OTHER STATIONS.  A FINAL VERSION WITH ADDITIONAL DATA IS
      ISSUED ABOUT 10 MINUTES AFTER THE HOUR.

NMZ501-503-504-510>518-291600-
NORTHWEST PLATEAU/NORTHCENTRAL MOUNTAINS

CITY           SKY/WX    TMP DP  RH WIND       PRES   REMARKS
FARMINGTON     SUNNY     70  50  49 E9        30.29S
SANTA FE       SUNNY     69  51  52 NE6       30.38R
TAOS           SUNNY     63  41  45 CALM      30.46S

$$
NMZ402-403-502-505>509-291600-
WESTCENTRAL MOUNTAINS/SOUTHWEST MOUNTAINS

CITY           SKY/WX    TMP DP  RH WIND       PRES   REMARKS
GALLUP         SUNNY     67  48  50 NE3       30.35S
GRANTS         SUNNY     68  53  57 S7        30.39S
SILVER CITY      N/A     73  54  49 N5        30.28R

$$
NMZ407-409-411-412-291600-
SOUTHERN DESERTS

CITY           SKY/WX    TMP DP  RH WIND       PRES   REMARKS
DEMING         MOSUNNY   74  57  55 E6        30.20R
HOLLOMAN AFB   SUNNY     76  55  48 CALM      30.18R
ALAMOGORDO     SUNNY     73  57  56 S3        30.20S
T OR C         MOSUNNY   73  56  54 NE10      30.24R

$$
NMZ519>523-291600-
CENTRAL VALLEYS/CENTRAL HIGHLANDS

CITY           SKY/WX    TMP DP  RH WIND       PRES   REMARKS
ALBUQUERQUE    MOSUNNY   71  51  49 N7        30.31S
DOUBLE EAGLE   MOSUNNY   72  52  49 N7        30.35R
MORIARTY ARPT  FAIR      64  53  66 N3        30.38S
CLINES CORNERS MOSUNNY   68  53  58 NE3       30.40R
BELEN          FAIR      71  53  53 NW3       30.30S
SOCORRO        NOT AVBL

$$
NMZ524>526-539-540-291600-
SOUTHCENTRAL MOUNTAINS

CITY           SKY/WX    TMP DP  RH WIND       PRES   REMARKS
RUIDOSO        SUNNY     66  48  52 MISG      30.40R

$$
NMZ527>531-291600-
NORTHEAST HIGHLANDS/NORTHEAST PLAINS

CITY           SKY/WX    TMP DP  RH WIND       PRES   REMARKS
LAS VEGAS      SUNNY     66  49  54 N8        30.41S
RATON          SUNNY     68  47  46 E7        30.36S
CLAYTON        SUNNY     75  56  51 N12       30.27R

$$
NMZ532>537-291600-
EASTCENTRAL PLAINS

CITY           SKY/WX    TMP DP  RH WIND       PRES   REMARKS
TUCUMCARI      SUNNY     75  57  53 NW7       30.20S
CANNON AFB     MOSUNNY   78  56  47 NE14      30.19S
CLOVIS AIRPORT MOSUNNY   73  57  56 N13       30.21S

$$
NMZ028-029-538-291600-
SOUTHEAST PLAINS

CITY           SKY/WX    TMP DP  RH WIND       PRES   REMARKS
ROSWELL        PTSUNNY   69  62  78 E3        30.21R
ARTESIA        SUNNY     72  64  78 NE5       30.22R
CARLSBAD       NOT AVBL
HOBBS          PTSUNNY   68  68 100 N3        30.21


$$



USA.gov is the U.S. government's official web portal to all federal, state and local government web resources and services.